Location: Peterborough
(44.3048°N, 78.3199°W)
Time: 04:35:59
(UTC-04:00)

ISS - Pass Details

Date: 15 May 2025
Orbit: 415 x 418 km, 51.6° (Epoch: 20 June)

Event Time Altitude Azimuth Distance (km) Brightness Sun altitude
Rises 00:44:22 0° 302° (WNW) 2,359 0.6 -26.5°
Reaches altitude 10° 00:46:33 10° 310° (NW) 1,493 -0.4 -26.5°
Enters shadow 00:47:53 21° 321° (NW) 1,006 -1.3 -26.6°
